This is the latest recevied weather packets stored in our database for station/object K8JMX-13. If no packets are shown the sender has not sent any weather packets the latest 10 day(s).
| Time | Temp. | Humidity | Pressure | Rain* | Wind** | Luminosity | Snow |
|---|---|---|---|---|---|---|---|
| 1777094768 | 16.67° C | 90% | 1007.3 hPa | 0 mm | - | 0 W/m² | - |
| 1777094462 | 16.67° C | 90% | 1007.1 hPa | 0 mm | - | 0 W/m² | - |
| 1777094162 | 16.67° C | 89% | 1007 hPa | 0 mm | - | 0 W/m² | - |
| 1777093856 | 16.67° C | 89% | 1007 hPa | 0 mm | - | 0 W/m² | - |
| 1777093552 | 16.11° C | 89% | 1007.1 hPa | 1.27 mm | - | 0 W/m² | - |
| 1777093249 | 16.11° C | 88% | 1006.9 hPa | 0 mm | - | 0 W/m² | - |
| 1777092949 | 16.67° C | 88% | 1007.2 hPa | 0 mm | - | 0 W/m² | - |
| 1777092645 | 16.67° C | 88% | 1007.3 hPa | 0 mm | - | 0 W/m² | - |
| 1777092340 | 16.67° C | 87% | 1007.3 hPa | 1.78 mm | - | 0 W/m² | - |
| 1777092037 | 16.67° C | 87% | 1007.3 hPa | 3.56 mm | - | 0 W/m² | - |
| 1777091732 | 16.67° C | 86% | 1007.4 hPa | 4.83 mm | - | 0 W/m² | - |
| 1777091428 | 17.22° C | 84% | 1007.3 hPa | 7.11 mm | - | 0 W/m² | - |
| 1777091126 | 17.22° C | 83% | 1007.3 hPa | 4.32 mm | - | 0 W/m² | - |
| 1777090824 | 17.78° C | 81% | 1007.7 hPa | 1.78 mm | - | 0 W/m² | - |
| 1777090522 | 17.78° C | 79% | 1007.3 hPa | 1.78 mm | - | 0 W/m² | - |
| 1777090217 | 17.78° C | 78% | 1007.5 hPa | 0 mm | - | 0 W/m² | - |
| 1777089914 | 18.33° C | 77% | 1007.5 hPa | 0 mm | - | 0 W/m² | - |
| 1777089609 | 18.89° C | 75% | 1007.4 hPa | 0 mm | - | 0 W/m² | - |
| 1777089305 | 19.44° C | 70% | 1007.4 hPa | 0 mm | - | 0 W/m² | - |
| 1777088999 | 19.44° C | 67% | 1007.4 hPa | 0 mm | - | 0 W/m² | - |
| 1777088695 | 19.44° C | 67% | 1007.3 hPa | 0 mm | - | 0 W/m² | - |
| 1777088390 | 20° C | 67% | 1007.3 hPa | 0 mm | - | 0 W/m² | - |
| 1777088084 | 20° C | 66% | 1007.3 hPa | 0 mm | - | 0 W/m² | - |
* Rain latest hour (hover to see other rain measurements)
** Current wind speed in m/s (hover to see current wind gust speed)